SKYSAT-C5

Last updated on Wed Mar 11 2026 00:02:35 GMT+0000 (Coordinated Universal Time)

1 41772U 16058C 26069.08643921 .00010267 00000+0 31133-3 0 9996 2 41772 97.0615 114.1343 0001712 84.6199 275.5240 15.34300267528557
UTC large
Height (km)
Speed (km/s)
/
Latitude / Longitude
Inclination (degrees)
Orbital Period (minutes)
Azimuth
Elevation
Range (km)
Doppler Factor

Next 0 passes for location: London (51.5072 / 0.1276)

Sorry there are no passes over London.